When you browse on this site, cookies collect data to enhance your experience and personalize the content and advertising you see.
Visit our Privacy Policy to learn more. By continuing to use the site, you agree to this use of cookies and data.
  • In Netherlands
  • List of Countries
  • For 7 days
  • Water Temperature
  • Satellite Maps
  • Weather Map
  • Weather Widgets
  • user-avatar
    Login

    Hourly Weather Mendoza

    Today, 16 December, Sunday

    Time Temperature Precipitation Wind Pressure Humidity
    00:00 +27°C° 0 mm 3 mps 698 mmHg 33%
    01:00 +26°C° 0 mm 2 mps 697 mmHg 33%
    02:00 +26°C° 0 mm 2 mps 697 mmHg 34%
    03:00 +25°C° 0 mm 2 mps 697 mmHg 35%
    04:00 +25°C° 0 mm 2 mps 697 mmHg 35%
    05:00 +26°C° 0 mm 2 mps 697 mmHg 34%
    06:00 +27°C° 0 mm 2 mps 698 mmHg 32%
    07:00 +28°C° 0 mm 2 mps 698 mmHg 30%
    08:00 +29°C° 0 mm 3 mps 698 mmHg 28%
    09:00 +31°C° 0 mm 3 mps 698 mmHg 25%
    10:00 +33°C° 0 mm 3 mps 698 mmHg 23%
    11:00 +34°C° 0 mm 3 mps 697 mmHg 21%
    12:00 +35°C° 0 mm 3 mps 697 mmHg 20%
    13:00 +36°C° 0 mm 4 mps 697 mmHg 19%
    14:00 +36°C° 0 mm 3 mps 696 mmHg 18%
    15:00 +37°C° 0 mm 3 mps 696 mmHg 18%
    16:00 +37°C° 0 mm 3 mps 695 mmHg 18%
    17:00 +36°C° 0 mm 3 mps 696 mmHg 20%
    18:00 +35°C° 0 mm 3 mps 696 mmHg 21%
    19:00 +34°C° 0 mm 2 mps 696 mmHg 23%
    20:00 +32°C° 0 mm 2 mps 696 mmHg 24%
    21:00 +31°C° 0 mm 2 mps 696 mmHg 26%
    22:00 +31°C° 0 mm 1 mps 696 mmHg 27%
    23:00 +30°C° 0.1 mm 1 mps 696 mmHg 30%

    Tomorrow, 17 December, Monday

    Time Temperature Precipitation Wind Pressure Humidity
    00:00 +29°C° 0.1 mm 2 mps 696 mmHg 32%
    01:00 +29°C° 0.1 mm 2 mps 695 mmHg 34%
    02:00 +27°C° 0.6 mm 4 mps 696 mmHg 38%
    03:00 +24°C° 0.6 mm 6 mps 696 mmHg 41%
    04:00 +22°C° 0.6 mm 8 mps 696 mmHg 45%
    05:00 +22°C° 0 mm 8 mps 697 mmHg 43%
    06:00 +23°C° 0 mm 8 mps 697 mmHg 40%
    07:00 +23°C° 0 mm 7 mps 698 mmHg 38%
    08:00 +24°C° 0 mm 7 mps 698 mmHg 36%
    09:00 +27°C° 0 mm 7 mps 698 mmHg 35%
    10:00 +28°C° 0 mm 7 mps 698 mmHg 33%
    11:00 +29°C° 0 mm 7 mps 698 mmHg 32%
    12:00 +29°C° 0 mm 7 mps 697 mmHg 32%
    13:00 +30°C° 0 mm 7 mps 697 mmHg 32%
    14:00 +30°C° 0 mm 7 mps 697 mmHg 33%
    15:00 +30°C° 0 mm 7 mps 697 mmHg 35%
    16:00 +29°C° 0 mm 7 mps 697 mmHg 36%
    17:00 +28°C° 0.1 mm 7 mps 698 mmHg 40%
    18:00 +27°C° 0.1 mm 6 mps 698 mmHg 44%
    19:00 +26°C° 0.1 mm 6 mps 699 mmHg 49%
    20:00 +26°C° 0.1 mm 5 mps 699 mmHg 52%
    21:00 +25°C° 0.1 mm 5 mps 700 mmHg 56%
    22:00 +23°C° 0.1 mm 5 mps 701 mmHg 60%
    23:00 +23°C° 0.2 mm 4 mps 700 mmHg 63%

    Day after tomorrow, 18 December, Tuesday

    Time Temperature Precipitation Wind Pressure Humidity
    00:00 +22°C° 0.2 mm 4 mps 700 mmHg 67%
    01:00 +21°C° 0.2 mm 3 mps 700 mmHg 70%
    02:00 +21°C° 0.1 mm 3 mps 700 mmHg 71%
    03:00 +20°C° 0.1 mm 3 mps 700 mmHg 71%
    04:00 +20°C° 0.1 mm 3 mps 700 mmHg 72%
    05:00 +20°C° 0 mm 3 mps 700 mmHg 68%
    06:00 +21°C° 0 mm 3 mps 700 mmHg 65%
    07:00 +21°C° 0 mm 2 mps 701 mmHg 62%
    08:00 +24°C° 0 mm 3 mps 701 mmHg 55%
    09:00 +25°C° 0 mm 3 mps 700 mmHg 49%
    10:00 +27°C° 0 mm 3 mps 700 mmHg 43%
    11:00 +28°C° 0 mm 4 mps 700 mmHg 41%
    12:00 +29°C° 0 mm 4 mps 699 mmHg 38%
    13:00 +30°C° 0 mm 4 mps 699 mmHg 36%
    14:00 +30°C° 0.1 mm 4 mps 699 mmHg 35%
    15:00 +32°C° 0.1 mm 4 mps 698 mmHg 34%
    16:00 +32°C° 0.1 mm 4 mps 698 mmHg 34%
    17:00 +30°C° 0.2 mm 4 mps 698 mmHg 35%
    18:00 +30°C° 0.2 mm 3 mps 698 mmHg 36%
    19:00 +29°C° 0.2 mm 3 mps 698 mmHg 38%
    20:00 +29°C° 0.1 mm 3 mps 698 mmHg 39%
    21:00 +28°C° 0.1 mm 3 mps 698 mmHg 40%
    22:00 +28°C° 0.1 mm 3 mps 698 mmHg 41%
    23:00 +27°C° 0 mm 2 mps 698 mmHg 41%

    19 December, Wednesday

    Time Temperature Precipitation Wind Pressure Humidity
    00:00 +26°C° 0 mm 2 mps 697 mmHg 42%
    01:00 +26°C° 0 mm 1 mps 696 mmHg 42%
    02:00 +26°C° 0 mm 1 mps 696 mmHg 42%
    03:00 +26°C° 0 mm 1 mps 696 mmHg 42%
    04:00 +26°C° 0 mm 1 mps 695 mmHg 42%
    05:00 +26°C° 0 mm 1 mps 696 mmHg 41%
    06:00 +27°C° 0 mm 2 mps 696 mmHg 41%
    07:00 +27°C° 0 mm 2 mps 696 mmHg 40%
    08:00 +28°C° 0 mm 2 mps 696 mmHg 38%
    09:00 +29°C° 0 mm 3 mps 696 mmHg 37%
    10:00 +30°C° 0 mm 3 mps 696 mmHg 35%
    11:00 +33°C° 0.1 mm 3 mps 695 mmHg 32%
    12:00 +34°C° 0.1 mm 3 mps 695 mmHg 29%
    13:00 +35°C° 0.1 mm 3 mps 694 mmHg 26%
    14:00 +35°C° 0.1 mm 3 mps 694 mmHg 26%
    15:00 +35°C° 0.1 mm 3 mps 694 mmHg 27%
    16:00 +35°C° 0.1 mm 2 mps 694 mmHg 27%
    17:00 +33°C° 0.3 mm 4 mps 694 mmHg 31%
    18:00 +30°C° 0.3 mm 6 mps 694 mmHg 35%
    19:00 +29°C° 0.3 mm 7 mps 695 mmHg 39%
    20:00 +28°C° 1.2 mm 6 mps 695 mmHg 41%
    21:00 +28°C° 1.2 mm 4 mps 696 mmHg 43%
    22:00 +27°C° 1.2 mm 2 mps 697 mmHg 44%
    23:00 +27°C° 0 mm 2 mps 697 mmHg 44%

    20 December, Thursday

    Time Temperature Precipitation Wind Pressure Humidity
    00:00 +27°C° 0 mm 2 mps 697 mmHg 44%
    01:00 +26°C° 0 mm 3 mps 697 mmHg 44%
    02:00 +26°C° 0 mm 3 mps 697 mmHg 44%
    03:00 +25°C° 0 mm 4 mps 698 mmHg 43%
    04:00 +25°C° 0 mm 5 mps 698 mmHg 43%
    05:00 +25°C° 0 mm 4 mps 698 mmHg 41%
    06:00 +23°C° 0 mm 4 mps 699 mmHg 39%
    07:00 +23°C° 0 mm 4 mps 699 mmHg 37%
    08:00 +26°C° 0 mm 4 mps 699 mmHg 34%
    09:00 +27°C° 0 mm 4 mps 699 mmHg 31%
    10:00 +28°C° 0 mm 3 mps 699 mmHg 28%
    11:00 +29°C° 0 mm 3 mps 698 mmHg 27%
    12:00 +30°C° 0 mm 3 mps 698 mmHg 26%
    13:00 +31°C° 0 mm 3 mps 697 mmHg 25%
    14:00 +33°C° 0 mm 3 mps 697 mmHg 24%
    15:00 +33°C° 0 mm 3 mps 696 mmHg 24%
    16:00 +33°C° 0 mm 3 mps 696 mmHg 24%
    17:00 +33°C° 0 mm 3 mps 696 mmHg 25%
    18:00 +31°C° 0 mm 3 mps 697 mmHg 27%
    19:00 +30°C° 0 mm 3 mps 697 mmHg 28%
    20:00 +29°C° 0 mm 2 mps 697 mmHg 30%
    21:00 +29°C° 0 mm 2 mps 697 mmHg 31%
    22:00 +28°C° 0 mm 2 mps 698 mmHg 33%
    23:00 +27°C° 0 mm 2 mps 697 mmHg 34%

    21 December, Friday

    Time Temperature Precipitation Wind Pressure Humidity
    00:00 +27°C° 0 mm 1 mps 697 mmHg 36%
    01:00 +26°C° 0 mm 1 mps 696 mmHg 38%
    02:00 +25°C° 0 mm 1 mps 696 mmHg 39%
    03:00 +25°C° 0 mm 1 mps 696 mmHg 40%
    04:00 +24°C° 0 mm 1 mps 696 mmHg 41%
    05:00 +26°C° 0 mm 1 mps 697 mmHg 38%
    06:00 +27°C° 0 mm 1 mps 697 mmHg 35%
    07:00 +28°C° 0 mm 1 mps 698 mmHg 32%
    08:00 +30°C° 0 mm 2 mps 697 mmHg 29%
    09:00 +31°C° 0 mm 3 mps 697 mmHg 26%
    10:00 +34°C° 0 mm 4 mps 697 mmHg 23%
    11:00 +35°C° 0 mm 4 mps 697 mmHg 22%
    12:00 +36°C° 0 mm 5 mps 696 mmHg 21%
    13:00 +37°C° 0 mm 5 mps 696 mmHg 19%
    14:00 +37°C° 0 mm 5 mps 695 mmHg 20%
    15:00 +37°C° 0 mm 5 mps 695 mmHg 20%
    16:00 +37°C° 0 mm 5 mps 695 mmHg 20%
    17:00 +36°C° 0 mm 4 mps 695 mmHg 22%
    18:00 +35°C° 0 mm 3 mps 696 mmHg 24%
    19:00 +34°C° 0 mm 3 mps 696 mmHg 26%
    20:00 +34°C° 0 mm 3 mps 696 mmHg 28%
    21:00 +32°C° 0 mm 2 mps 696 mmHg 31%
    22:00 +31°C° 0 mm 2 mps 697 mmHg 33%
    23:00 +31°C° 0 mm 2 mps 696 mmHg 34%
    Show more